Regional Weather Roundup
Issued by NWS

Home | Current Version | Previous Version | Graphics & Text | Print | Product List | Glossary On
Versions: 1 2 3 4 5 6 7 8 9 10 11 12 13 14 15 16 17 18 19 20 21 22 23 24 25 26 27 28 29 30 31 32 33 34 35 36 37 38 39 40 41 42 43 44 45 46 47 48 49 50
989
ASUS43 KBIS 230302
RWRND

NORTH DAKOTA REGIONAL WEATHER ROUNDUP
NATIONAL WEATHER SERVICE BISMARCK ND
900 PM CST SUN JAN 22 2017

NOTE: "FAIR" INDICATES FEW OR NO CLOUDS BELOW 12,000 FEET WITH NO
SIGNIFICANT WEATHER AND/OR OBSTRUCTIONS TO VISIBILITY.


NDZ001>003-009>011-017-230400-
NORTHWEST NORTH DAKOTA

CITY           SKY/WX    TMP DP  RH WIND       PRES   REMARKS
WILLISTON      CLOUDY    28  23  81 W7        29.81F
MINOT          CLOUDY    31  27  85 W10       29.77S
MINOT AFB      CLOUDY    29  27  89 W14       29.76F WCI  19
$$

NDZ018>021-031>035-040>046-230400-
SOUTHWEST NORTH DAKOTA

CITY           SKY/WX    TMP DP  RH WIND       PRES   REMARKS
BISMARCK       CLOUDY    32  26  78 W8        29.84S
DICKINSON      CLOUDY    25  22  88 NW13      29.79F WCI  14
GARRISON         N/A     29  23  78 NW10      29.79S WCI  20
HETTINGER ARPT CLOUDY    25  22  88 NW14      29.83F WCI  13
$$

NDZ004>008-012>016-024-026-027-054-230400-
NORTHEAST NORTH DAKOTA

CITY           SKY/WX    TMP DP  RH WIND       PRES   REMARKS
GRAND FORKS    CLOUDY    34  29  82 W12       29.77R
GRND FRKS AFB  CLOUDY    32  28  84 NW9       29.77S
DEVILS LAKE    CLOUDY    30  27  88 W14       29.76F WCI  19
$$

NDZ022-023-025-028>030-036>039-047>053-230400-
SOUTHEAST NORTH DAKOTA

CITY           SKY/WX    TMP DP  RH WIND       PRES   REMARKS
FARGO          CLOUDY    35  30  82 NW7       29.79S
JAMESTOWN      CLOUDY    32  28  85 NW14      29.79S
$$





USA.gov is the U.S. government's official web portal to all federal, state and local government web resources and services.